This demonstration page uses our WeatherBlox Daily Observations layout. Learn more.

Left ArrowRight Arrow

34.16533, -84.80231

Hourly Observations for April 30, 2020

Temp ( °F °C ) Dew Point ( °F °C ) Humidity (%) Winds ( mph kmh ) Pressure ( in mb ) Visibility ( mi km ) Precip ( " mm )
12:53 am 00:53 Cloudy 58 14.4 55 12.8 90 90 Calm 29.77 1008 10 16 0.00 0.00
1:09 am 01:09 Cloudy 57 13.9 55 12.8 93 93 Calm 29.80 1009 10 16 0.00 0.00
1:24 am 01:24 Cloudy 57 13.9 55 12.8 93 93 Calm 29.81 1009 10 16 0.00 0.00
1:50 am 01:50 Cloudy with Light Rain 57 14 55 13 94 94 Calm 29.81 1009 6 10 0.01 0.25
1:53 am 01:53 Cloudy with Light Rain 58 14.4 56 13.3 93 93 Calm 29.78 1009 7 11 0.01 0.25
2:14 am 02:14 Mostly Cloudy 58 14.4 55 12.8 90 90 Calm 29.82 1010 7 11 0.00 0.00
2:29 am 02:29 Cloudy with Mist and Fog 57 13.9 55 12.8 93 93 Calm 29.81 1009 5 8 0.00 0.00
2:53 am 02:53 Cloudy with Mist and Fog 58 14.4 55 12.8 90 90 Calm 29.78 1008 2 2 0.00 0.00
3:02 am 03:02 Mostly Cloudy with Fog 57 13.9 55 12.8 93 93 Calm 29.80 1009 1 1 0.00 0.00
3:09 am 03:09 Mostly Cloudy with Fog 57 13.9 55 12.8 93 93 Calm 29.80 1009 0 0 0.00 0.00
3:30 am 03:30 Mostly Cloudy with Fog 57 13.9 54 12.2 90 90 Calm 29.80 1009 1 1 0.00 0.00
3:53 am 03:53 Mostly Cloudy with Fog 56 13.3 54 12.2 93 93 Calm 29.78 1008 1 1 0.00 0.00
3:59 am 03:59 Mostly Cloudy with Mist and Fog 56 13.3 54 12.2 93 93 Calm 29.80 1009 2 3 0.00 0.00
4:02 am 04:02 Partly Cloudy with Mist and Fog 55 12.8 54 12.2 96 96 Calm 29.80 1009 4 6 0.00 0.00
4:53 am 04:53 Clear 54 12.2 52 11.1 93 93 Calm 29.79 1009 9 14 0.00 0.00
5:53 am 05:53 Clear 53 11.7 51 10.6 93 93 Calm 29.78 1008 10 16 0.00 0.00
6:53 am 06:53 Sunny 51 10.6 49 9.4 92 92 Calm 29.79 1009 10 16 0.00 0.00
7:53 am 07:53 Cloudy 53 11.7 51 10.6 93 93 VRB 3 6 29.82 1010 10 16 0.00 0.00
8:53 am 08:53 Cloudy 53 11.7 50 10 89 89 Calm 29.84 1011 10 16 0.00 0.00
9:53 am 09:53 Cloudy 55 12.8 51 10.6 87 87 Calm 29.85 1011 10 16 0.00 0.00
10:07 am 10:07 Cloudy 56 13.3 51 10.6 84 84 VRB 3 6 29.88 1012 10 16 0.00 0.00
10:53 am 10:53 Cloudy 57 13.9 50 10 78 78 Calm 29.85 1011 10 16 0.00 0.00
11:04 am 11:04 Cloudy 58 14.4 49 9.4 72 72 VRB 3 6 29.88 1012 10 16 0.00 0.00
11:12 am 11:12 Cloudy 58 14.4 49 9.4 72 72 Calm 29.88 1012 10 16 0.00 0.00
11:45 am 11:45 Cloudy 56 13.3 49 9.4 77 77 NNW 3 6 29.89 1012 10 16 0.00 0.00
11:53 am 11:53 Cloudy 56 13.3 49 9.4 77 77 Calm 29.88 1012 10 16 0.00 0.00
12:53 pm 12:53 Cloudy 59 15 47 8.3 64 64 Calm 29.86 1011 10 16 0.00 0.00
1:53 pm 13:53 Cloudy 61 16.1 47 8.3 60 60 VRB 3 6 29.85 1011 10 16 0.00 0.00
2:53 pm 14:53 Cloudy 60 15.6 47 8.3 62 62 VRB 3 6 29.86 1011 10 16 0.00 0.00
3:53 pm 15:53 Cloudy 64 17.8 46 7.8 52 52 VRB 3 6 29.85 1011 10 16 0.00 0.00
4:53 pm 16:53 Cloudy 63 17.2 45 7.2 52 52 Calm 29.85 1011 10 16 0.00 0.00
5:53 pm 17:53 Cloudy 65 18.3 46 7.8 51 51 VRB 3 6 29.85 1011 10 16 0.00 0.00
6:53 pm 18:53 Mostly Cloudy 64 17.8 47 8.3 54 54 Calm 29.84 1011 10 16 0.00 0.00
7:53 pm 19:53 Mostly Cloudy 60 15.6 50 10 70 70 Calm 29.85 1011 10 16 0.00 0.00
8:53 pm 20:53 Clear 53 11.7 50 10 89 89 Calm 29.87 1012 10 16 0.00 0.00
9:53 pm 21:53 Clear 53 11.7 49 9.4 86 86 Calm 29.89 1012 10 16 0.00 0.00
10:53 pm 22:53 Clear 52 11.1 48 8.9 86 86 SW 3 6 29.91 1013 10 16 0.00 0.00
11:53 pm 23:53 Clear 51 10.6 48 8.9 89 89 Calm 29.92 1013 10 16 0.00 0.00

Powered by AerisWeather